Time,TemperatureF,DewpointF,PressureIn,WindDirection,WindDirectionDegrees,WindSpeedMPH,WindSpeedGustMPH,Humidity,HourlyPrecipIn,Conditions,Clouds,dailyrainin,SoftwareType,DateUTC
2013-06-11 00:00:00,64.6,63.4,29.76,SW,224,0.0,4.0,96,0.02,,OVC070,0.00,VWS V14.01,2013-06-11 04:00:00,
2013-06-11 00:01:00,64.6,63.4,29.76,SW,224,1.0,4.0,96,0.02,,-RA,0.43,VWS V14.01,2013-06-11 04:01:00,
2013-06-11 00:02:00,64.6,63.4,29.76,SW,224,1.0,4.0,96,0.02,,-RA,0.43,VWS V14.01,2013-06-11 04:02:00,
2013-06-11 00:06:00,64.6,63.4,29.76,SSW,212,0.0,1.0,96,0.02,,-RA,0.00,VWS V14.01,2013-06-11 04:06:00,
2013-06-11 00:11:00,64.6,63.4,29.76,SSW,212,0.0,1.0,96,0.03,,-RA,0.01,VWS V14.01,2013-06-11 04:11:00,
2013-06-11 00:16:00,64.6,63.4,29.76,SSW,211,0.0,1.0,96,0.03,,-RA,0.01,VWS V14.01,2013-06-11 04:16:00,
2013-06-11 00:22:00,64.6,63.4,29.76,SSW,211,0.0,1.0,96,0.04,,-RA,0.02,VWS V14.01,2013-06-11 04:22:00,
2013-06-11 00:27:00,64.5,63.3,29.76,SSW,211,0.0,1.0,96,0.04,,-RA,0.02,VWS V14.01,2013-06-11 04:27:00,
2013-06-11 00:30:00,64.5,63.6,29.76,SSW,211,0.0,1.0,97,0.04,,OVC070,0.02,VWS V14.01,2013-06-11 04:30:00,
2013-06-11 00:32:00,64.5,63.6,29.76,SSW,211,0.0,1.0,97,0.04,,OVC010,0.02,VWS V14.01,2013-06-11 04:32:00,
2013-06-11 00:37:00,64.5,63.6,29.76,SSW,211,0.0,0.0,97,0.02,,OVC010,0.02,VWS V14.01,2013-06-11 04:37:00,
2013-06-11 00:42:00,64.5,63.6,29.75,SSW,211,0.0,0.0,97,0.02,,OVC010,0.02,VWS V14.01,2013-06-11 04:42:00,
2013-06-11 00:47:00,64.5,63.6,29.76,SSW,211,0.0,0.0,97,0.04,,OVC010,0.04,VWS V14.01,2013-06-11 04:47:00,
2013-06-11 00:52:00,64.5,63.6,29.76,SSW,212,0.0,0.0,97,0.06,,OVC010,0.06,VWS V14.01,2013-06-11 04:52:00,
2013-06-11 00:57:00,64.4,63.5,29.75,SSW,211,0.0,0.0,97,0.07,,OVC010,0.07,VWS V14.01,2013-06-11 04:57:00,
2013-06-11 01:00:00,64.4,63.5,29.75,SSW,211,0.0,0.0,97,0.07,,OVC070,0.07,VWS V14.01,2013-06-11 05:00:00,
2013-06-11 01:02:00,64.4,63.5,29.75,SSW,211,0.0,0.0,97,0.07,,OVC010,0.07,VWS V14.01,2013-06-11 05:02:00,
2013-06-11 01:07:00,64.4,63.5,29.75,SSW,211,0.0,0.0,97,0.07,,OVC010,0.07,VWS V14.01,2013-06-11 05:07:00,
2013-06-11 01:12:00,64.4,63.5,29.75,SSW,211,0.0,0.0,97,0.07,,OVC010,0.07,VWS V14.01,2013-06-11 05:12:00,
2013-06-11 01:17:00,64.4,63.5,29.74,SSW,210,0.0,0.0,97,0.07,,OVC010,0.07,VWS V14.01,2013-06-11 05:17:00,
2013-06-11 01:22:00,64.4,63.5,29.74,SSW,210,0.0,0.0,97,0.08,,OVC010,0.08,VWS V14.01,2013-06-11 05:22:00,
2013-06-11 01:28:00,64.3,63.4,29.74,SSW,210,0.0,0.0,97,0.08,,OVC010,0.08,VWS V14.01,2013-06-11 05:28:00,
2013-06-11 01:30:00,64.3,63.4,29.74,SSW,209,0.0,0.0,97,0.08,,OVC070,0.08,VWS V14.01,2013-06-11 05:30:00,
2013-06-11 01:33:00,64.3,63.4,29.74,SSW,209,0.0,0.0,97,0.08,,-RA,0.08,VWS V14.01,2013-06-11 05:33:00,
2013-06-11 01:38:00,64.3,63.4,29.74,SSW,210,0.0,0.0,97,0.06,,-RA,0.08,VWS V14.01,2013-06-11 05:38:00,
2013-06-11 01:43:00,64.3,63.4,29.74,SSW,210,0.0,0.0,97,0.06,,-RA,0.08,VWS V14.01,2013-06-11 05:43:00,
2013-06-11 01:48:00,64.3,63.4,29.73,SSW,210,0.0,0.0,97,0.06,,-RA,0.08,VWS V14.01,2013-06-11 05:48:00,
2013-06-11 01:53:00,64.2,63.3,29.73,SSW,209,0.0,0.0,97,0.06,,-RA,0.08,VWS V14.01,2013-06-11 05:53:00,
2013-06-11 01:58:00,64.2,63.3,29.73,SSW,210,0.0,0.0,97,0.06,,-RA,0.08,VWS V14.01,2013-06-11 05:58:00,
2013-06-11 02:00:00,64.2,63.3,29.73,SSW,210,0.0,0.0,97,0.06,,OVC070,0.08,VWS V14.01,2013-06-11 06:00:00,
2013-06-11 02:04:00,64.2,63.3,29.73,SSW,210,0.0,0.0,97,0.01,,-RA,0.08,VWS V14.01,2013-06-11 06:04:00,
2013-06-11 02:09:00,64.2,63.3,29.73,SSW,210,0.0,0.0,97,0.01,,-RA,0.08,VWS V14.01,2013-06-11 06:09:00,
2013-06-11 02:14:00,64.1,63.2,29.73,SSW,210,0.0,0.0,97,0.01,,-RA,0.08,VWS V14.01,2013-06-11 06:14:00,
2013-06-11 02:19:00,64.1,63.2,29.73,SSW,210,0.0,0.0,97,0.01,,-RA,0.08,VWS V14.01,2013-06-11 06:19:00,
2013-06-11 02:24:00,64.1,63.2,29.73,SSW,210,0.0,0.0,97,0.01,,-RA,0.08,VWS V14.01,2013-06-11 06:24:00,
2013-06-11 02:29:00,64.0,63.1,29.73,SSW,210,0.0,0.0,97,0.01,,-RA,0.08,VWS V14.01,2013-06-11 06:29:00,
2013-06-11 02:30:00,63.9,63.0,29.73,SSW,210,0.0,0.0,97,0.01,,OVC070,0.08,VWS V14.01,2013-06-11 06:30:00,
2013-06-11 02:34:00,63.9,63.0,29.73,SSW,210,0.0,0.0,97,0.00,,OVC070,0.08,VWS V14.01,2013-06-11 06:34:00,
2013-06-11 02:39:00,63.8,62.9,29.73,SSW,212,0.0,0.0,97,0.00,,OVC070,0.08,VWS V14.01,2013-06-11 06:39:00,
2013-06-11 02:44:00,63.7,62.8,29.72,SSW,212,0.0,0.0,97,0.00,,OVC070,0.08,VWS V14.01,2013-06-11 06:44:00,
2013-06-11 02:49:00,63.4,62.5,29.73,SSW,212,0.0,0.0,97,0.00,,OVC070,0.08,VWS V14.01,2013-06-11 06:49:00,
2013-06-11 02:54:00,63.3,62.4,29.72,SSW,212,0.0,0.0,97,0.00,,OVC070,0.08,VWS V14.01,2013-06-11 06:54:00,
2013-06-11 02:59:00,63.1,62.2,29.72,SSW,212,0.0,0.0,97,0.00,,OVC070,0.08,VWS V14.01,2013-06-11 06:59:00,
2013-06-11 03:00:00,63.0,62.1,29.72,SSW,212,0.0,0.0,97,0.00,,OVC070,0.08,VWS V14.01,2013-06-11 07:00:00,
2013-06-11 03:04:00,63.0,62.1,29.72,SSW,212,0.0,0.0,97,0.00,,OVC070,0.08,VWS V14.01,2013-06-11 07:04:00,
2013-06-11 03:09:00,62.9,62.0,29.72,SSW,212,0.0,0.0,97,0.00,,OVC070,0.08,VWS V14.01,2013-06-11 07:09:00,
2013-06-11 03:14:00,62.7,61.8,29.72,SSW,212,0.0,0.0,97,0.00,,OVC070,0.08,VWS V14.01,2013-06-11 07:14:00,
2013-06-11 03:19:00,62.7,61.8,29.72,SSW,212,0.0,0.0,97,0.00,,,0.08,VWS V14.01,2013-06-11 07:19:00,
2013-06-11 03:24:00,62.6,61.7,29.72,SSW,212,0.0,0.0,97,0.00,,,0.08,VWS V14.01,2013-06-11 07:24:00,
2013-06-11 03:29:00,62.3,61.4,29.72,SSW,212,0.0,0.0,97,0.00,,,0.08,VWS V14.01,2013-06-11 07:29:00,
2013-06-11 03:30:00,62.3,61.4,29.72,SSW,212,0.0,0.0,97,0.00,,OVC070,0.08,VWS V14.01,2013-06-11 07:30:00,
2013-06-11 03:34:00,62.3,61.4,29.72,SSW,212,0.0,0.0,97,0.00,,,0.08,VWS V14.01,2013-06-11 07:34:00,
2013-06-11 03:39:00,62.5,61.9,29.72,SSW,212,0.0,0.0,98,0.00,,,0.08,VWS V14.01,2013-06-11 07:39:00,
2013-06-11 03:44:00,62.6,62.0,29.72,SSW,212,0.0,0.0,98,0.00,,,0.08,VWS V14.01,2013-06-11 07:44:00,
2013-06-11 03:49:00,62.8,62.2,29.72,SSW,212,0.0,0.0,98,0.00,,,0.08,VWS V14.01,2013-06-11 07:49:00,
2013-06-11 03:54:00,62.7,62.1,29.72,SSW,212,0.0,0.0,98,0.00,,,0.08,VWS V14.01,2013-06-11 07:54:00,
2013-06-11 04:00:00,62.6,62.0,29.72,SSW,212,0.0,0.0,98,0.00,,,0.08,VWS V14.01,2013-06-11 08:00:00,
2013-06-11 04:05:00,62.6,62.0,29.71,SSW,212,0.0,0.0,98,0.00,,,0.08,VWS V14.01,2013-06-11 08:05:00,
2013-06-11 04:10:00,62.6,62.0,29.71,SSW,212,0.0,0.0,98,0.00,,,0.08,VWS V14.01,2013-06-11 08:10:00,
2013-06-11 04:15:00,62.5,61.9,29.71,SSW,212,0.0,0.0,98,0.00,,,0.08,VWS V14.01,2013-06-11 08:15:00,
2013-06-11 04:20:00,62.5,61.9,29.71,SSW,212,0.0,0.0,98,0.00,,,0.08,VWS V14.01,2013-06-11 08:20:00,
2013-06-11 04:25:00,62.5,61.9,29.71,SSW,212,0.0,0.0,98,0.00,,,0.08,VWS V14.01,2013-06-11 08:25:00,
2013-06-11 04:30:00,62.4,61.8,29.71,SSW,212,0.0,0.0,98,0.00,,,0.08,VWS V14.01,2013-06-11 08:30:00,
2013-06-11 04:35:00,62.3,61.7,29.71,SSW,212,0.0,0.0,98,0.00,,,0.08,VWS V14.01,2013-06-11 08:35:00,
2013-06-11 04:40:00,62.2,61.6,29.71,SSW,212,0.0,0.0,98,0.00,,,0.08,VWS V14.01,2013-06-11 08:40:00,
2013-06-11 04:45:00,62.2,61.6,29.71,SSW,212,0.0,0.0,98,0.00,,SCT024,0.08,VWS V14.01,2013-06-11 08:45:00,
2013-06-11 04:50:00,62.0,61.4,29.71,SSW,212,0.0,0.0,98,0.00,,SCT024,0.08,VWS V14.01,2013-06-11 08:50:00,
2013-06-11 04:55:00,62.0,61.4,29.70,SSW,212,0.0,0.0,98,0.00,,SCT024,0.08,VWS V14.01,2013-06-11 08:55:00,
2013-06-11 05:00:00,61.9,61.3,29.70,SSW,212,0.0,0.0,98,0.00,,SCT024,0.08,VWS V14.01,2013-06-11 09:00:00,
2013-06-11 05:05:00,61.7,61.1,29.70,SSW,212,0.0,0.0,98,0.00,,SCT024,0.08,VWS V14.01,2013-06-11 09:05:00,
2013-06-11 05:10:00,61.4,60.8,29.70,SSW,210,0.0,0.0,98,0.00,,SCT024,0.08,VWS V14.01,2013-06-11 09:10:00,
2013-06-11 05:15:00,61.3,60.7,29.70,SSW,210,0.0,0.0,98,0.00,,SCT024,0.08,VWS V14.01,2013-06-11 09:15:00,
2013-06-11 05:20:00,61.2,60.6,29.70,SSW,210,0.0,0.0,98,0.00,,SCT024,0.08,VWS V14.01,2013-06-11 09:20:00,
2013-06-11 05:25:00,61.3,60.7,29.70,SSW,210,0.0,0.0,98,0.00,,SCT024,0.08,VWS V14.01,2013-06-11 09:25:00,
2013-06-11 05:30:00,61.1,60.5,29.70,SSW,212,0.0,0.0,98,0.00,,OVC070,0.08,VWS V14.01,2013-06-11 09:30:00,
2013-06-11 05:31:00,61.2,60.6,29.70,SSW,212,0.0,0.0,98,0.00,,SCT024,0.08,VWS V14.01,2013-06-11 09:31:00,
2013-06-11 05:36:00,61.1,60.5,29.70,SSW,212,0.0,0.0,98,0.00,,FEW030,0.08,VWS V14.01,2013-06-11 09:36:00,
2013-06-11 05:41:00,61.1,60.5,29.70,SSW,211,0.0,0.0,98,0.00,,FEW030,0.08,VWS V14.01,2013-06-11 09:41:00,
2013-06-11 05:46:00,61.2,60.6,29.70,SSW,211,0.0,0.0,98,0.00,,FEW030,0.08,VWS V14.01,2013-06-11 09:46:00,
2013-06-11 05:51:00,61.3,60.7,29.70,SSW,211,0.0,1.0,98,0.00,,FEW030,0.08,VWS V14.01,2013-06-11 09:51:00,
2013-06-11 05:56:00,61.3,60.7,29.70,SSW,212,0.0,1.0,98,0.00,,FEW030,0.08,VWS V14.01,2013-06-11 09:56:00,
2013-06-11 06:00:00,61.9,61.3,29.70,SSW,212,0.0,1.0,98,0.00,,OVC070,0.08,VWS V14.01,2013-06-11 10:00:00,
2013-06-11 06:01:00,61.8,61.2,29.70,SSW,212,0.0,1.0,98,0.00,,FEW030,0.08,VWS V14.01,2013-06-11 10:01:00,
2013-06-11 06:06:00,62.1,61.5,29.70,SSW,212,0.0,0.0,98,0.00,,FEW030,0.08,VWS V14.01,2013-06-11 10:06:00,
2013-06-11 06:11:00,62.3,61.7,29.70,SW,225,0.0,0.0,98,0.00,,FEW030,0.08,VWS V14.01,2013-06-11 10:11:00,
2013-06-11 06:16:00,62.5,61.9,29.70,WSW,252,0.0,0.0,98,0.00,,FEW030,0.08,VWS V14.01,2013-06-11 10:16:00,
2013-06-11 06:21:00,62.5,61.9,29.70,WSW,252,0.0,0.0,98,0.00,,FEW030,0.08,VWS V14.01,2013-06-11 10:21:00,
2013-06-11 06:26:00,62.5,61.9,29.70,WSW,252,0.0,0.0,98,0.00,,FEW030,0.08,VWS V14.01,2013-06-11 10:26:00,
2013-06-11 06:30:00,62.5,61.9,29.69,West,267,0.0,0.0,98,0.00,,OVC070,0.08,VWS V14.01,2013-06-11 10:30:00,
2013-06-11 06:31:00,62.6,62.0,29.70,West,267,0.0,0.0,98,0.00,,FEW030,0.08,VWS V14.01,2013-06-11 10:31:00,
2013-06-11 06:37:00,62.6,62.0,29.70,West,267,0.0,0.0,98,0.00,,FEW030,0.08,VWS V14.01,2013-06-11 10:37:00,
2013-06-11 06:42:00,62.6,62.0,29.70,West,267,0.0,0.0,98,0.00,,FEW030,0.08,VWS V14.01,2013-06-11 10:42:00,
2013-06-11 06:47:00,62.7,62.1,29.70,West,267,0.0,0.0,98,0.00,,,0.08,VWS V14.01,2013-06-11 10:47:00,
2013-06-11 06:52:00,62.8,62.2,29.70,West,267,0.0,0.0,98,0.00,,,0.08,VWS V14.01,2013-06-11 10:52:00,
2013-06-11 06:57:00,62.9,62.3,29.70,West,267,0.0,0.0,98,0.00,,,0.08,VWS V14.01,2013-06-11 10:57:00,
2013-06-11 07:00:00,62.9,62.3,29.70,West,267,0.0,0.0,98,0.00,,OVC070,0.08,VWS V14.01,2013-06-11 11:00:00,
2013-06-11 07:02:00,63.0,62.4,29.70,West,267,0.0,0.0,98,0.00,,,0.08,VWS V14.01,2013-06-11 11:02:00,
2013-06-11 07:07:00,62.9,62.3,29.70,WSW,250,0.0,0.0,98,0.00,,,0.08,VWS V14.01,2013-06-11 11:07:00,
2013-06-11 07:12:00,63.0,62.4,29.70,WSW,253,0.0,0.0,98,0.00,,,0.08,VWS V14.01,2013-06-11 11:12:00,
2013-06-11 07:17:00,63.0,62.4,29.69,WSW,254,1.0,1.0,98,0.00,,,0.08,VWS V14.01,2013-06-11 11:17:00,
2013-06-11 07:23:00,63.1,62.5,29.69,WSW,255,1.0,1.0,98,0.00,,,0.08,VWS V14.01,2013-06-11 11:23:00,
2013-06-11 07:28:00,63.2,62.6,29.69,West,262,1.0,1.0,98,0.00,,,0.08,VWS V14.01,2013-06-11 11:28:00,
2013-06-11 07:30:00,63.2,62.6,29.69,WSW,250,1.0,1.0,98,0.00,,OVC070,0.08,VWS V14.01,2013-06-11 11:30:00,
2013-06-11 07:33:00,63.2,62.6,29.69,WSW,250,1.0,1.0,98,0.00,,FEW065,0.08,VWS V14.01,2013-06-11 11:33:00,
2013-06-11 07:38:00,63.3,62.7,29.69,WSW,252,1.0,1.0,98,0.00,,FEW065,0.08,VWS V14.01,2013-06-11 11:38:00,
2013-06-11 07:43:00,63.3,62.7,29.69,WSW,251,1.0,1.0,98,0.00,,FEW065,0.08,VWS V14.01,2013-06-11 11:43:00,
2013-06-11 07:48:00,63.4,62.8,29.69,WSW,257,0.0,1.0,98,0.00,,FEW065,0.08,VWS V14.01,2013-06-11 11:48:00,
2013-06-11 07:53:00,63.5,62.9,29.69,West,259,1.0,1.0,98,0.00,,FEW065,0.08,VWS V14.01,2013-06-11 11:53:00,
2013-06-11 07:58:00,63.7,63.1,29.69,WSW,250,1.0,1.0,98,0.00,,FEW065,0.08,VWS V14.01,2013-06-11 11:58:00,
2013-06-11 08:00:00,63.9,63.3,29.69,WSW,248,0.0,1.0,98,0.00,,OVC070,0.08,VWS V14.01,2013-06-11 12:00:00,
2013-06-11 08:03:00,63.9,63.3,29.69,WSW,248,1.0,1.0,98,0.00,,FEW065,0.08,VWS V14.01,2013-06-11 12:03:00,
2013-06-11 08:08:00,64.1,63.5,29.69,WSW,257,1.0,2.0,98,0.00,,FEW065,0.08,VWS V14.01,2013-06-11 12:08:00,
2013-06-11 08:13:00,64.2,63.6,29.69,WSW,253,1.0,2.0,98,0.00,,FEW065,0.08,VWS V14.01,2013-06-11 12:13:00,
2013-06-11 08:18:00,64.4,63.8,29.69,West,267,1.0,2.0,98,0.00,,FEW065,0.08,VWS V14.01,2013-06-11 12:18:00,
2013-06-11 08:23:00,64.4,63.5,29.69,WSW,253,1.0,2.0,97,0.00,,FEW065,0.08,VWS V14.01,2013-06-11 12:23:00,
2013-06-11 08:28:00,64.6,64.0,29.69,West,273,1.0,3.0,98,0.01,,FEW065,0.09,VWS V14.01,2013-06-11 12:28:00,
2013-06-11 08:30:00,64.7,63.8,29.69,West,273,1.0,3.0,97,0.02,,OVC070,0.10,VWS V14.01,2013-06-11 12:30:00,
2013-06-11 08:33:00,64.7,63.8,29.69,WSW,255,3.0,3.0,97,0.03,,OVC060,0.11,VWS V14.01,2013-06-11 12:33:00,
2013-06-11 08:38:00,64.7,63.8,29.69,WSW,247,2.0,3.0,97,0.05,,OVC060,0.13,VWS V14.01,2013-06-11 12:38:00,
2013-06-11 08:43:00,64.7,63.8,29.69,West,267,0.0,3.0,97,0.09,,OVC060,0.17,VWS V14.01,2013-06-11 12:43:00,
2013-06-11 08:48:00,64.6,63.7,29.69,WNW,293,1.0,3.0,97,0.11,,OVC060,0.19,VWS V14.01,2013-06-11 12:48:00,
2013-06-11 08:53:00,64.5,63.6,29.69,West,274,1.0,3.0,97,0.13,,OVC060,0.21,VWS V14.01,2013-06-11 12:53:00,
2013-06-11 08:58:00,64.5,63.6,29.70,West,259,3.0,3.0,97,0.14,,OVC060,0.22,VWS V14.01,2013-06-11 12:58:00,
2013-06-11 09:00:00,64.3,63.4,29.70,WSW,253,1.0,4.0,97,0.15,,OVC070,0.23,VWS V14.01,2013-06-11 13:00:00,
2013-06-11 09:03:00,64.3,63.4,29.70,West,275,2.0,2.0,97,0.15,,OVC060,0.23,VWS V14.01,2013-06-11 13:03:00,
2013-06-11 09:08:00,63.9,62.7,29.70,WNW,298,1.0,10.0,96,0.16,,OVC060,0.24,VWS V14.01,2013-06-11 13:08:00,
2013-06-11 09:14:00,63.3,62.1,29.70,WNW,294,1.0,10.0,96,0.18,,OVC060,0.26,VWS V14.01,2013-06-11 13:14:00,
2013-06-11 09:19:00,63.0,61.8,29.70,West,280,1.0,10.0,96,0.19,,OVC060,0.27,VWS V14.01,2013-06-11 13:19:00,
2013-06-11 09:24:00,62.8,61.7,29.70,West,267,2.0,10.0,96,0.20,,OVC060,0.28,VWS V14.01,2013-06-11 13:24:00,
2013-06-11 09:29:00,62.6,61.5,29.70,West,281,3.0,10.0,96,0.20,,OVC060,0.28,VWS V14.01,2013-06-11 13:29:00,
2013-06-11 09:30:00,62.5,61.3,29.70,WSW,253,3.0,10.0,96,0.20,,OVC070,0.28,VWS V14.01,2013-06-11 13:30:00,
2013-06-11 09:34:00,62.5,61.3,29.70,WNW,293,1.0,3.0,96,0.18,,-RA,0.28,VWS V14.01,2013-06-11 13:34:00,
2013-06-11 09:39:00,62.4,61.2,29.70,West,271,2.0,6.0,96,0.18,,-RA,0.28,VWS V14.01,2013-06-11 13:39:00,
2013-06-11 09:44:00,62.3,61.2,29.70,West,261,3.0,6.0,96,0.18,,-RA,0.28,VWS V14.01,2013-06-11 13:44:00,
2013-06-11 09:49:00,62.2,61.0,29.71,West,278,3.0,6.0,96,0.18,,-RA,0.28,VWS V14.01,2013-06-11 13:49:00,
2013-06-11 09:54:00,62.1,61.0,29.71,West,280,4.0,6.0,96,0.18,,-RA,0.28,VWS V14.01,2013-06-11 13:54:00,
2013-06-11 09:59:00,62.1,61.0,29.71,West,275,1.0,6.0,96,0.18,,-RA,0.28,VWS V14.01,2013-06-11 13:59:00,
2013-06-11 10:00:00,62.1,61.0,29.71,West,273,3.0,6.0,96,0.18,,OVC070,0.28,VWS V14.01,2013-06-11 14:00:00,
2013-06-11 10:05:00,62.1,61.0,29.71,West,267,1.0,4.0,96,0.05,,-RA,0.28,VWS V14.01,2013-06-11 14:05:00,
2013-06-11 10:10:00,62.2,61.0,29.71,West,271,2.0,4.0,96,0.05,,-RA,0.28,VWS V14.01,2013-06-11 14:10:00,
2013-06-11 10:15:00,62.3,61.2,29.71,West,276,3.0,4.0,96,0.05,,RA,0.28,VWS V14.01,2013-06-11 14:15:00,
2013-06-11 10:20:00,62.3,61.2,29.71,NW,324,2.0,5.0,96,0.05,,RA,0.28,VWS V14.01,2013-06-11 14:20:00,
2013-06-11 10:25:00,62.3,61.2,29.71,West,262,2.0,5.0,96,0.05,,RA,0.28,VWS V14.01,2013-06-11 14:25:00,
2013-06-11 10:30:00,62.2,60.8,29.71,West,274,2.0,5.0,95,0.05,,RA,0.28,VWS V14.01,2013-06-11 14:30:00,
2013-06-11 10:35:00,62.3,60.8,29.71,West,273,1.0,2.0,95,0.00,,RA,0.28,VWS V14.01,2013-06-11 14:35:00,
2013-06-11 10:40:00,62.4,61.2,29.71,West,262,2.0,2.0,96,0.00,,RA,0.28,VWS V14.01,2013-06-11 14:40:00,
2013-06-11 10:45:00,62.3,60.8,29.71,WNW,284,2.0,4.0,95,0.00,,RA,0.28,VWS V14.01,2013-06-11 14:45:00,
2013-06-11 10:50:00,62.4,61.0,29.71,NNE,29,5.0,5.0,95,0.00,,RA,0.28,VWS V14.01,2013-06-11 14:50:00,
2013-06-11 10:55:00,62.4,61.0,29.71,WSW,257,3.0,6.0,95,0.01,,RA,0.29,VWS V14.01,2013-06-11 14:55:00,
2013-06-11 11:00:00,62.5,61.0,29.71,WNW,283,2.0,6.0,95,0.01,,RA,0.29,VWS V14.01,2013-06-11 15:00:00,
2013-06-11 11:05:00,62.5,61.0,29.71,West,259,2.0,7.0,95,0.01,,RA,0.29,VWS V14.01,2013-06-11 15:05:00,
2013-06-11 11:10:00,62.6,60.8,29.72,West,273,4.0,7.0,94,0.01,,RA,0.29,VWS V14.01,2013-06-11 15:10:00,
2013-06-11 11:16:00,62.6,60.8,29.72,West,277,2.0,7.0,94,0.01,,RA,0.29,VWS V14.01,2013-06-11 15:16:00,
2013-06-11 11:21:00,62.6,61.2,29.72,WSW,256,2.0,7.0,95,0.01,,RA,0.29,VWS V14.01,2013-06-11 15:21:00,
2013-06-11 11:26:00,62.6,61.2,29.72,West,267,2.0,7.0,95,0.01,,RA,0.29,VWS V14.01,2013-06-11 15:26:00,
2013-06-11 11:30:00,62.5,61.0,29.72,West,269,2.0,7.0,95,0.01,,OVC070,0.29,VWS V14.01,2013-06-11 15:30:00,
2013-06-11 11:31:00,62.5,61.0,29.72,West,262,2.0,7.0,95,0.01,,RA,0.29,VWS V14.01,2013-06-11 15:31:00,
2013-06-11 11:36:00,62.6,61.2,29.72,West,275,1.0,3.0,95,0.01,,OVC022,0.29,VWS V14.01,2013-06-11 15:36:00,
2013-06-11 11:41:00,62.7,61.2,29.72,West,262,3.0,3.0,95,0.01,,OVC022,0.29,VWS V14.01,2013-06-11 15:41:00,
2013-06-11 11:46:00,62.8,61.3,29.72,West,259,2.0,4.0,95,0.01,,OVC022,0.29,VWS V14.01,2013-06-11 15:46:00,
2013-06-11 11:51:00,63.0,61.2,29.72,West,259,4.0,4.0,94,0.01,,OVC022,0.29,VWS V14.01,2013-06-11 15:51:00,
2013-06-11 11:57:00,63.1,61.3,29.72,West,264,2.0,4.0,94,0.01,,OVC022,0.29,VWS V14.01,2013-06-11 15:57:00,
2013-06-11 12:00:00,63.3,61.2,29.72,West,262,4.0,7.0,93,0.01,,OVC070,0.29,VWS V14.01,2013-06-11 16:00:00,
2013-06-11 12:02:00,63.2,61.2,29.72,West,266,4.0,7.0,93,0.01,,OVC022,0.29,VWS V14.01,2013-06-11 16:02:00,
2013-06-11 12:07:00,63.3,61.2,29.72,WNW,295,1.0,4.0,93,0.00,,OVC022,0.29,VWS V14.01,2013-06-11 16:07:00,
2013-06-11 12:12:00,63.4,61.3,29.72,West,263,2.0,4.0,93,0.00,,OVC022,0.29,VWS V14.01,2013-06-11 16:12:00,
2013-06-11 12:17:00,63.5,61.4,29.72,West,267,2.0,5.0,93,0.00,,OVC022,0.29,VWS V14.01,2013-06-11 16:17:00,
2013-06-11 12:22:00,63.6,61.2,29.73,West,260,4.0,5.0,92,0.00,,OVC022,0.29,VWS V14.01,2013-06-11 16:22:00,
2013-06-11 12:27:00,63.7,61.3,29.73,West,277,2.0,7.0,92,0.00,,OVC022,0.29,VWS V14.01,2013-06-11 16:27:00,
2013-06-11 12:30:00,63.8,61.4,29.73,WSW,245,4.0,7.0,92,0.00,,OVC070,0.29,VWS V14.01,2013-06-11 16:30:00,
2013-06-11 12:32:00,63.8,61.4,29.73,West,274,2.0,7.0,92,0.00,,OVC022,0.29,VWS V14.01,2013-06-11 16:32:00,
2013-06-11 12:38:00,63.9,61.2,29.73,NW,309,3.0,5.0,91,0.00,,OVC022,0.29,VWS V14.01,2013-06-11 16:38:00,
2013-06-11 12:43:00,63.9,61.5,29.73,West,271,3.0,6.0,92,0.00,,OVC022,0.29,VWS V14.01,2013-06-11 16:43:00,
2013-06-11 12:48:00,64.0,61.6,29.73,West,269,2.0,6.0,92,0.00,,OVC017,0.29,VWS V14.01,2013-06-11 16:48:00,
2013-06-11 12:53:00,63.9,61.5,29.73,West,280,3.0,6.0,92,0.00,,OVC017,0.29,VWS V14.01,2013-06-11 16:53:00,
2013-06-11 12:58:00,64.1,61.7,29.73,WNW,284,2.0,10.0,92,0.00,,OVC017,0.29,VWS V14.01,2013-06-11 16:58:00,
2013-06-11 13:00:00,64.2,61.5,29.73,WSW,248,4.0,10.0,91,0.00,,OVC070,0.29,VWS V14.01,2013-06-11 17:00:00,
2013-06-11 13:03:00,64.2,61.5,29.73,West,277,4.0,4.0,91,0.00,,OVC017,0.29,VWS V14.01,2013-06-11 17:03:00,
2013-06-11 13:08:00,64.3,61.6,29.73,NW,314,2.0,8.0,91,0.00,,OVC017,0.29,VWS V14.01,2013-06-11 17:08:00,
2013-06-11 13:13:00,64.3,61.3,29.73,West,267,2.0,8.0,90,0.00,,OVC017,0.29,VWS V14.01,2013-06-11 17:13:00,
2013-06-11 13:18:00,64.3,61.6,29.73,NE,46,2.0,8.0,91,0.00,,OVC017,0.29,VWS V14.01,2013-06-11 17:18:00,
2013-06-11 13:24:00,64.3,61.6,29.73,WSW,252,2.0,9.0,91,0.00,,OVC017,0.29,VWS V14.01,2013-06-11 17:24:00,
2013-06-11 13:29:00,64.5,61.8,29.73,SSW,207,1.0,9.0,91,0.00,,OVC017,0.29,VWS V14.01,2013-06-11 17:29:00,
2013-06-11 13:30:00,64.6,61.9,29.73,West,266,1.0,9.0,91,0.00,,OVC070,0.29,VWS V14.01,2013-06-11 17:30:00,
2013-06-11 13:34:00,64.7,62.0,29.73,West,269,0.0,1.0,91,0.00,,OVC017,0.29,VWS V14.01,2013-06-11 17:34:00,
2013-06-11 13:39:00,64.8,62.1,29.73,West,270,1.0,3.0,91,0.00,,OVC017,0.29,VWS V14.01,2013-06-11 17:39:00,
2013-06-11 13:44:00,64.7,62.0,29.73,WSW,256,1.0,5.0,91,0.00,,OVC017,0.29,VWS V14.01,2013-06-11 17:44:00,
2013-06-11 13:49:00,64.6,61.9,29.73,WSW,257,0.0,5.0,91,0.00,,OVC017,0.29,VWS V14.01,2013-06-11 17:49:00,
2013-06-11 13:54:00,64.7,62.3,29.73,WNW,302,1.0,8.0,92,0.00,,OVC017,0.29,VWS V14.01,2013-06-11 17:54:00,
2013-06-11 13:59:00,65.0,62.6,29.73,West,267,2.0,8.0,92,0.00,,OVC017,0.29,VWS V14.01,2013-06-11 17:59:00,
2013-06-11 14:00:00,65.4,62.7,29.73,NW,325,3.0,8.0,91,0.00,,OVC070,0.29,VWS V14.01,2013-06-11 18:00:00,
2013-06-11 14:04:00,65.5,62.8,29.73,NW,314,3.0,3.0,91,0.00,,OVC017,0.29,VWS V14.01,2013-06-11 18:04:00,
2013-06-11 14:09:00,65.6,62.3,29.73,West,260,2.0,6.0,89,0.00,,OVC017,0.29,VWS V14.01,2013-06-11 18:09:00,
2013-06-11 14:14:00,65.7,62.7,29.73,West,281,2.0,6.0,90,0.00,,OVC017,0.29,VWS V14.01,2013-06-11 18:14:00,
2013-06-11 14:19:00,66.0,62.7,29.73,West,269,2.0,6.0,89,0.00,,OVC017,0.29,VWS V14.01,2013-06-11 18:19:00,
2013-06-11 14:25:00,65.8,62.2,29.74,West,259,0.0,6.0,88,0.00,,OVC017,0.29,VWS V14.01,2013-06-11 18:25:00,
2013-06-11 14:30:00,65.5,61.9,29.74,SW,236,3.0,6.0,88,0.00,,OVC017,0.29,VWS V14.01,2013-06-11 18:30:00,
2013-06-11 14:35:00,65.2,61.9,29.74,NW,309,1.0,4.0,89,0.00,,OVC041,0.29,VWS V14.01,2013-06-11 18:35:00,
2013-06-11 14:40:00,65.0,62.0,29.74,West,277,1.0,4.0,90,0.00,,OVC041,0.29,VWS V14.01,2013-06-11 18:40:00,
2013-06-11 14:45:00,65.1,62.4,29.74,WSW,253,3.0,4.0,91,0.00,,OVC041,0.29,VWS V14.01,2013-06-11 18:45:00,
2013-06-11 14:50:00,65.3,62.3,29.74,WNW,285,1.0,6.0,90,0.00,,OVC041,0.29,VWS V14.01,2013-06-11 18:50:00,
2013-06-11 14:55:00,65.5,62.5,29.75,WSW,245,2.0,6.0,90,0.00,,OVC041,0.29,VWS V14.01,2013-06-11 18:55:00,
2013-06-11 15:00:00,65.6,62.6,29.75,NNW,346,0.0,6.0,90,0.00,,OVC041,0.29,VWS V14.01,2013-06-11 19:00:00,
2013-06-11 15:05:00,65.5,62.2,29.75,WSW,257,1.0,6.0,89,0.00,,OVC041,0.29,VWS V14.01,2013-06-11 19:05:00,
2013-06-11 15:10:00,65.5,62.5,29.75,West,262,1.0,7.0,90,0.00,,OVC041,0.29,VWS V14.01,2013-06-11 19:10:00,
2013-06-11 15:15:00,65.8,62.5,29.75,North,353,6.0,8.0,89,0.00,,OVC041,0.29,VWS V14.01,2013-06-11 19:15:00,
2013-06-11 15:20:00,66.2,62.5,29.75,West,280,3.0,11.0,88,0.00,,OVC041,0.29,VWS V14.01,2013-06-11 19:20:00,
2013-06-11 15:26:00,66.4,62.7,29.75,WSW,255,4.0,11.0,88,0.00,,OVC041,0.29,VWS V14.01,2013-06-11 19:26:00,
2013-06-11 15:30:00,66.6,62.9,29.75,WNW,284,1.0,11.0,88,0.00,,OVC070,0.29,VWS V14.01,2013-06-11 19:30:00,
2013-06-11 15:31:00,66.6,62.9,29.75,NW,319,1.0,11.0,88,0.00,,OVC041,0.29,VWS V14.01,2013-06-11 19:31:00,
2013-06-11 15:36:00,66.7,63.0,29.75,WNW,297,1.0,2.0,88,0.00,,-RA,0.29,VWS V14.01,2013-06-11 19:36:00,
2013-06-11 15:41:00,66.6,62.6,29.75,West,266,4.0,7.0,87,0.00,,-RA,0.29,VWS V14.01,2013-06-11 19:41:00,
2013-06-11 15:46:00,66.2,62.2,29.75,WSW,255,0.0,7.0,87,0.00,,-RA,0.29,VWS V14.01,2013-06-11 19:46:00,
2013-06-11 15:51:00,65.8,61.8,29.76,WNW,289,4.0,7.0,87,0.00,,-RA,0.29,VWS V14.01,2013-06-11 19:51:00,
2013-06-11 15:56:00,65.3,61.7,29.76,NW,311,1.0,9.0,88,0.00,,-RA,0.29,VWS V14.01,2013-06-11 19:56:00,
2013-06-11 16:00:00,65.2,61.9,29.76,WSW,242,2.0,9.0,89,0.00,,OVC070,0.29,VWS V14.01,2013-06-11 20:00:00,
2013-06-11 16:01:00,65.1,61.8,29.76,West,270,1.0,9.0,89,0.00,,-RA,0.29,VWS V14.01,2013-06-11 20:01:00,
2013-06-11 16:06:00,65.4,61.8,29.76,West,280,1.0,6.0,88,0.00,,-RA,0.29,VWS V14.01,2013-06-11 20:06:00,
2013-06-11 16:12:00,65.6,62.0,29.76,WSW,255,1.0,7.0,88,0.00,,-RA,0.29,VWS V14.01,2013-06-11 20:12:00,
2013-06-11 16:17:00,65.6,61.6,29.76,West,277,2.0,7.0,87,0.00,,-RA,0.29,VWS V14.01,2013-06-11 20:17:00,
2013-06-11 16:22:00,65.3,61.7,29.76,WSW,256,1.0,7.0,88,0.00,,-RA,0.29,VWS V14.01,2013-06-11 20:22:00,
2013-06-11 16:27:00,64.9,61.6,29.76,West,267,2.0,7.0,89,0.00,,-RA,0.29,VWS V14.01,2013-06-11 20:27:00,
2013-06-11 16:30:00,64.8,61.8,29.76,West,280,0.0,7.0,90,0.00,,OVC070,0.29,VWS V14.01,2013-06-11 20:30:00,
2013-06-11 16:32:00,64.8,61.8,29.76,SSW,193,0.0,7.0,90,0.00,,-RA,0.29,VWS V14.01,2013-06-11 20:32:00,
2013-06-11 16:37:00,64.8,61.2,29.76,NNW,334,1.0,5.0,88,0.00,,-RA,0.29,VWS V14.01,2013-06-11 20:37:00,
2013-06-11 16:42:00,64.7,60.8,29.76,North,6,1.0,5.0,87,0.00,,-RA,0.29,VWS V14.01,2013-06-11 20:42:00,
2013-06-11 16:47:00,64.5,60.9,29.76,West,271,1.0,7.0,88,0.00,,-RA,0.29,VWS V14.01,2013-06-11 20:47:00,
2013-06-11 16:52:00,64.3,61.0,29.77,WNW,283,0.0,7.0,89,0.00,,-RA,0.29,VWS V14.01,2013-06-11 20:52:00,
2013-06-11 16:57:00,64.3,61.0,29.77,WSW,256,0.0,7.0,89,0.00,,-RA,0.29,VWS V14.01,2013-06-11 20:57:00,
2013-06-11 17:00:00,64.5,61.2,29.77,NW,326,0.0,7.0,89,0.00,,OVC070,0.29,VWS V14.01,2013-06-11 21:00:00,
2013-06-11 17:02:00,64.5,61.2,29.77,North,353,3.0,7.0,89,0.00,,-RA,0.29,VWS V14.01,2013-06-11 21:02:00,
2013-06-11 17:07:00,64.6,61.0,29.77,West,259,1.0,7.0,88,0.00,,-RA,0.29,VWS V14.01,2013-06-11 21:07:00,
2013-06-11 17:12:00,64.7,61.1,29.77,WNW,295,2.0,7.0,88,0.00,,-RA,0.29,VWS V14.01,2013-06-11 21:12:00,
2013-06-11 17:17:00,64.7,60.8,29.77,WSW,257,2.0,7.0,87,0.00,,-RA,0.29,VWS V14.01,2013-06-11 21:17:00,
2013-06-11 17:22:00,64.7,60.8,29.77,West,262,1.0,7.0,87,0.00,,-RA,0.29,VWS V14.01,2013-06-11 21:22:00,
2013-06-11 17:28:00,64.7,60.8,29.77,WNW,298,1.0,7.0,87,0.00,,-RA,0.29,VWS V14.01,2013-06-11 21:28:00,
2013-06-11 17:30:00,64.8,60.8,29.77,WNW,302,2.0,7.0,87,0.00,,OVC070,0.29,VWS V14.01,2013-06-11 21:30:00,
2013-06-11 17:33:00,64.8,60.8,29.77,WNW,302,2.0,7.0,87,0.00,,OVC050,0.29,VWS V14.01,2013-06-11 21:33:00,
2013-06-11 17:38:00,64.8,60.5,29.77,WSW,239,0.0,7.0,86,0.00,,OVC050,0.29,VWS V14.01,2013-06-11 21:38:00,
2013-06-11 17:43:00,64.8,60.8,29.78,NNW,347,0.0,7.0,87,0.00,,OVC050,0.29,VWS V14.01,2013-06-11 21:43:00,
2013-06-11 17:48:00,64.7,60.8,29.78,WNW,288,1.0,7.0,87,0.00,,OVC050,0.29,VWS V14.01,2013-06-11 21:48:00,
2013-06-11 17:53:00,64.6,60.3,29.78,South,186,0.0,7.0,86,0.00,,OVC050,0.29,VWS V14.01,2013-06-11 21:53:00,
2013-06-11 17:58:00,64.6,60.3,29.78,North,350,4.0,7.0,86,0.00,,OVC050,0.29,VWS V14.01,2013-06-11 21:58:00,
2013-06-11 18:00:00,64.7,60.4,29.78,WNW,290,2.0,7.0,86,0.00,,OVC070,0.29,VWS V14.01,2013-06-11 22:00:00,
2013-06-11 18:03:00,64.7,60.4,29.78,WSW,242,1.0,2.0,86,0.00,,OVC050,0.29,VWS V14.01,2013-06-11 22:03:00,
2013-06-11 18:08:00,64.7,60.4,29.77,SW,236,1.0,3.0,86,0.00,,OVC050,0.29,VWS V14.01,2013-06-11 22:08:00,
2013-06-11 18:13:00,64.7,60.8,29.77,NW,317,0.0,3.0,87,0.00,,OVC050,0.29,VWS V14.01,2013-06-11 22:13:00,
2013-06-11 18:18:00,64.9,60.6,29.77,NNW,343,0.0,5.0,86,0.00,,OVC050,0.29,VWS V14.01,2013-06-11 22:18:00,
2013-06-11 18:23:00,64.9,60.6,29.77,SSW,194,0.0,5.0,86,0.00,,OVC050,0.29,VWS V14.01,2013-06-11 22:23:00,
2013-06-11 18:29:00,64.9,60.6,29.77,WSW,245,0.0,5.0,86,0.00,,OVC050,0.29,VWS V14.01,2013-06-11 22:29:00,
2013-06-11 18:30:00,64.8,60.8,29.78,WSW,248,0.0,5.0,87,0.00,,OVC070,0.29,VWS V14.01,2013-06-11 22:30:00,
2013-06-11 18:34:00,64.8,60.8,29.78,WSW,248,0.0,1.0,87,0.00,,OVC048,0.29,VWS V14.01,2013-06-11 22:34:00,
2013-06-11 18:39:00,64.7,60.8,29.78,West,269,0.0,2.0,87,0.00,,OVC048,0.29,VWS V14.01,2013-06-11 22:39:00,
2013-06-11 18:44:00,64.6,60.7,29.78,SE,136,0.0,2.0,87,0.00,,OVC048,0.29,VWS V14.01,2013-06-11 22:44:00,
2013-06-11 18:49:00,64.6,60.7,29.78,South,169,0.0,2.0,87,0.00,,OVC048,0.29,VWS V14.01,2013-06-11 22:49:00,
2013-06-11 18:54:00,64.5,60.5,29.78,NNW,328,0.0,3.0,87,0.00,,OVC048,0.29,VWS V14.01,2013-06-11 22:54:00,
2013-06-11 18:59:00,64.6,60.7,29.78,NNW,336,0.0,3.0,87,0.00,,OVC048,0.29,VWS V14.01,2013-06-11 22:59:00,
2013-06-11 19:00:00,64.6,60.3,29.79,NW,311,1.0,4.0,86,0.00,,OVC070,0.29,VWS V14.01,2013-06-11 23:00:00,
2013-06-11 19:04:00,64.6,60.3,29.79,NW,314,0.0,2.0,86,0.00,,OVC048,0.29,VWS V14.01,2013-06-11 23:04:00,
2013-06-11 19:09:00,64.6,60.7,29.79,ENE,59,0.0,2.0,87,0.00,,OVC048,0.29,VWS V14.01,2013-06-11 23:09:00,
2013-06-11 19:14:00,64.5,60.5,29.79,NW,326,0.0,2.0,87,0.00,,OVC048,0.29,VWS V14.01,2013-06-11 23:14:00,
2013-06-11 19:19:00,64.4,60.5,29.79,NW,326,0.0,2.0,87,0.00,,OVC048,0.29,VWS V14.01,2013-06-11 23:19:00,
2013-06-11 19:24:00,64.4,60.8,29.79,West,264,0.0,2.0,88,0.00,,OVC048,0.29,VWS V14.01,2013-06-11 23:24:00,
2013-06-11 19:29:00,64.3,60.7,29.79,NNE,28,2.0,2.0,88,0.00,,OVC048,0.29,VWS V14.01,2013-06-11 23:29:00,
2013-06-11 19:30:00,64.3,60.7,29.79,NNE,30,0.0,2.0,88,0.00,,OVC070,0.29,VWS V14.01,2013-06-11 23:30:00,
2013-06-11 19:34:00,64.3,60.7,29.79,NNE,16,1.0,3.0,88,0.00,,OVC055,0.29,VWS V14.01,2013-06-11 23:34:00,
2013-06-11 19:40:00,64.3,60.7,29.79,NNE,15,0.0,3.0,88,0.00,,OVC055,0.29,VWS V14.01,2013-06-11 23:40:00,
2013-06-11 19:45:00,64.2,60.6,29.79,NNE,15,0.0,3.0,88,0.00,,OVC055,0.29,VWS V14.01,2013-06-11 23:45:00,
2013-06-11 19:50:00,64.2,60.6,29.79,NNE,14,0.0,3.0,88,0.00,,OVC055,0.29,VWS V14.01,2013-06-11 23:50:00,
2013-06-11 19:55:00,64.2,60.6,29.79,NNE,15,0.0,3.0,88,0.00,,OVC055,0.29,VWS V14.01,2013-06-11 23:55:00,
2013-06-11 20:00:00,64.1,60.8,29.79,NNE,15,0.0,3.0,89,0.00,,OVC055,0.29,VWS V14.01,2013-06-12 00:00:00,
2013-06-11 20:05:00,64.1,60.8,29.79,North,6,0.0,0.0,89,0.00,,OVC055,0.29,VWS V14.01,2013-06-12 00:05:00,
2013-06-11 20:11:00,64.0,60.7,29.79,North,6,0.0,0.0,89,0.00,,OVC055,0.29,VWS V14.01,2013-06-12 00:11:00,
2013-06-11 20:16:00,63.9,60.6,29.79,North,6,0.0,0.0,89,0.00,,OVC060,0.29,VWS V14.01,2013-06-12 00:16:00,
2013-06-11 20:21:00,63.9,60.6,29.79,North,6,0.0,0.0,89,0.00,,OVC060,0.29,VWS V14.01,2013-06-12 00:21:00,
2013-06-11 20:26:00,63.9,60.6,29.79,North,6,0.0,0.0,89,0.00,,OVC060,0.29,VWS V14.01,2013-06-12 00:26:00,
2013-06-11 20:30:00,63.8,60.5,29.80,North,3,0.0,0.0,89,0.00,,OVC070,0.29,VWS V14.01,2013-06-12 00:30:00,
2013-06-11 20:31:00,63.8,60.5,29.80,North,4,0.0,0.0,89,0.00,,OVC060,0.29,VWS V14.01,2013-06-12 00:31:00,
2013-06-11 20:36:00,63.8,60.5,29.80,North,3,0.0,0.0,89,0.00,,OVC060,0.29,VWS V14.01,2013-06-12 00:36:00,
2013-06-11 20:41:00,63.8,60.5,29.80,North,6,0.0,0.0,89,0.00,,OVC060,0.29,VWS V14.01,2013-06-12 00:41:00,
2013-06-11 20:47:00,63.7,60.4,29.80,North,4,0.0,0.0,89,0.00,,OVC060,0.29,VWS V14.01,2013-06-12 00:47:00,
2013-06-11 20:52:00,63.7,60.4,29.80,North,5,0.0,0.0,89,0.00,,OVC060,0.29,VWS V14.01,2013-06-12 00:52:00,
2013-06-11 20:57:00,63.6,60.3,29.81,North,5,0.0,0.0,89,0.00,,OVC060,0.29,VWS V14.01,2013-06-12 00:57:00,
2013-06-11 21:00:00,63.6,60.6,29.81,North,4,0.0,0.0,90,0.00,,OVC070,0.29,VWS V14.01,2013-06-12 01:00:00,
2013-06-11 21:02:00,63.5,60.5,29.81,North,5,0.0,0.0,90,0.00,,OVC060,0.29,VWS V14.01,2013-06-12 01:02:00,
2013-06-11 21:07:00,63.5,60.5,29.81,North,6,0.0,0.0,90,0.00,,OVC060,0.29,VWS V14.01,2013-06-12 01:07:00,
2013-06-11 21:12:00,63.5,60.5,29.81,SW,229,0.0,1.0,90,0.00,,OVC060,0.29,VWS V14.01,2013-06-12 01:12:00,
2013-06-11 21:17:00,63.6,60.3,29.81,NNW,340,0.0,5.0,89,0.00,,OVC060,0.29,VWS V14.01,2013-06-12 01:17:00,
2013-06-11 21:22:00,63.7,60.1,29.82,NW,304,0.0,5.0,88,0.00,,OVC060,0.29,VWS V14.01,2013-06-12 01:22:00,
2013-06-11 21:27:00,63.8,60.2,29.82,SSW,212,0.0,5.0,88,0.00,,OVC060,0.29,VWS V14.01,2013-06-12 01:27:00,
2013-06-11 21:30:00,63.8,60.2,29.82,NW,314,0.0,5.0,88,0.00,,OVC070,0.29,VWS V14.01,2013-06-12 01:30:00,
2013-06-11 21:33:00,63.8,60.2,29.82,NW,314,0.0,5.0,88,0.00,,OVC060,0.29,VWS V14.01,2013-06-12 01:33:00,
2013-06-11 21:38:00,63.8,59.9,29.83,WSW,256,3.0,7.0,87,0.00,,OVC060,0.29,VWS V14.01,2013-06-12 01:38:00,
2013-06-11 21:43:00,63.9,59.6,29.83,SW,219,0.0,7.0,86,0.00,,OVC060,0.29,VWS V14.01,2013-06-12 01:43:00,
2013-06-11 21:48:00,63.9,59.3,29.83,NE,39,0.0,7.0,85,0.00,,-RA,0.29,VWS V14.01,2013-06-12 01:48:00,
2013-06-11 21:53:00,63.9,59.3,29.83,SE,134,0.0,7.0,85,0.00,,-RA,0.29,VWS V14.01,2013-06-12 01:53:00,
2013-06-11 21:58:00,63.9,59.3,29.83,SSW,212,0.0,7.0,85,0.00,,-RA,0.29,VWS V14.01,2013-06-12 01:58:00,
2013-06-11 22:00:00,63.7,59.1,29.83,West,274,0.0,7.0,85,0.00,,OVC070,0.29,VWS V14.01,2013-06-12 02:00:00,
2013-06-11 22:03:00,63.7,59.1,29.83,West,266,0.0,0.0,85,0.00,,-RA,0.29,VWS V14.01,2013-06-12 02:03:00,
2013-06-11 22:08:00,63.7,58.8,29.83,NNW,343,1.0,3.0,84,0.00,,-RA,0.29,VWS V14.01,2013-06-12 02:08:00,
2013-06-11 22:13:00,63.6,58.7,29.83,WSW,243,0.0,3.0,84,0.00,,-RA,0.29,VWS V14.01,2013-06-12 02:13:00,
2013-06-11 22:18:00,63.5,58.9,29.84,NW,315,0.0,3.0,85,0.00,,-RA,0.29,VWS V14.01,2013-06-12 02:18:00,
2013-06-11 22:23:00,63.4,58.8,29.84,North,4,0.0,3.0,85,0.00,,-RA,0.29,VWS V14.01,2013-06-12 02:23:00,
2013-06-11 22:29:00,63.4,58.8,29.84,NNE,32,0.0,3.0,85,0.00,,-RA,0.29,VWS V14.01,2013-06-12 02:29:00,
2013-06-11 22:30:00,63.3,58.7,29.84,NNW,348,0.0,3.0,85,0.00,,OVC070,0.29,VWS V14.01,2013-06-12 02:30:00,
2013-06-11 22:34:00,63.3,58.7,29.85,WNW,283,1.0,3.0,85,0.00,,OVC070,0.29,VWS V14.01,2013-06-12 02:34:00,
2013-06-11 22:48:00,63.0,58.4,29.85,SW,216,2.0,2.0,85,0.00,,OVC070,0.29,VWS V14.01,2013-06-12 02:48:00,
2013-06-11 22:53:00,62.9,58.3,29.85,WSW,253,1.0,3.0,85,0.00,,OVC070,0.29,VWS V14.01,2013-06-12 02:53:00,
2013-06-11 22:58:00,62.8,57.9,29.85,NW,307,1.0,4.0,84,0.00,,OVC070,0.29,VWS V14.01,2013-06-12 02:58:00,
2013-06-11 23:00:00,62.8,57.9,29.85,West,273,0.0,5.0,84,0.00,,OVC,0.29,VWS V14.01,2013-06-12 03:00:00,
2013-06-11 23:03:00,62.8,57.9,29.85,WNW,284,2.0,2.0,84,0.00,,OVC070,0.29,VWS V14.01,2013-06-12 03:03:00,
2013-06-11 23:08:00,62.7,57.8,29.85,SW,215,1.0,2.0,84,0.00,,OVC070,0.29,VWS V14.01,2013-06-12 03:08:00,
2013-06-11 23:13:00,62.5,57.6,29.85,NW,321,0.0,2.0,84,0.00,,OVC070,0.29,VWS V14.01,2013-06-12 03:13:00,
2013-06-11 23:18:00,62.2,57.3,29.85,West,278,0.0,4.0,84,0.00,,OVC070,0.29,VWS V14.01,2013-06-12 03:18:00,
2013-06-11 23:24:00,61.9,57.0,29.85,NW,309,1.0,4.0,84,0.00,,OVC070,0.29,VWS V14.01,2013-06-12 03:24:00,
2013-06-11 23:29:00,61.6,56.7,29.85,ENE,73,2.0,4.0,84,0.00,,OVC070,0.29,VWS V14.01,2013-06-12 03:29:00,
2013-06-11 23:30:00,61.3,56.4,29.85,NE,41,0.0,4.0,84,0.00,,OVC,0.29,VWS V14.01,2013-06-12 03:30:00,
2013-06-11 23:34:00,61.3,56.4,29.85,WSW,256,1.0,1.0,84,0.00,,OVC070,0.29,VWS V14.01,2013-06-12 03:34:00,
2013-06-11 23:39:00,60.9,56.4,29.85,West,259,1.0,3.0,85,0.00,,OVC070,0.29,VWS V14.01,2013-06-12 03:39:00,
2013-06-11 23:44:00,60.5,56.3,29.85,WSW,254,0.0,3.0,86,0.00,,OVC070,0.29,VWS V14.01,2013-06-12 03:44:00,
2013-06-11 23:49:00,60.3,56.1,29.85,WSW,250,1.0,3.0,86,0.00,,OVC065,0.29,VWS V14.01,2013-06-12 03:49:00,
2013-06-11 23:54:00,60.1,56.2,29.86,North,353,2.0,5.0,87,0.00,,OVC065,0.29,VWS V14.01,2013-06-12 03:54:00,
2013-06-11 23:59:00,59.9,56.0,29.86,North,349,0.0,5.0,87,0.00,,OVC065,0.29,VWS V14.01,2013-06-12 03:59:00,